Weather reports worldwide

Advertisment
Luqa, Malta (16597): temperature & dewpoint: 19.05.2018 05:00:00 - 25.05.2018 05:00:00 (CEST)Luqa, Malta (16597): wind speed: 19.05.2018 05:00:00 - 25.05.2018 05:00:00 (CEST)Luqa, Malta (16597): wind direction: 19.05.2018 05:00:00 - 25.05.2018 05:00:00 (CEST)Luqa, Malta (16597): reduced air pressure: 19.05.2018 05:00:00 - 25.05.2018 05:00:00 (CEST)Luqa, Malta (16597): visibility: 19.05.2018 05:00:00 - 25.05.2018 05:00:00 (CEST)
Date & Time tt [°C] td [°C] ff [km/h] ff [kn] dd ppp [hPa] vv [km]
25.05.2018 05:00:00 16,0 12,9 4 2 NNW 1015,4 10
25.05.2018 04:00:00 16,0 13,0 4 2 N - 10
25.05.2018 03:00:00 16,0 15,0 4 2 N - 10
25.05.2018 02:00:00 16,8 14,4 5 3 SW 1016,1 10
25.05.2018 01:00:00 18,0 15,0 2 1 SSW - 10
25.05.2018 00:00:00 18,0 14,0 5 3 W - 10
24.05.2018 23:00:00 18,2 15,5 2 1 WSW 1016,9 10
24.05.2018 22:00:00 18,0 15,0 8 4 NNW - 10
24.05.2018 21:00:00 19,0 14,0 9 5 NNW - 10
24.05.2018 20:00:00 20,6 15,4 9 5 N 1016,2 10
24.05.2018 19:00:00 22,0 16,0 13 7 N - 10
24.05.2018 18:00:00 23,0 15,0 15 8 NNW - 10
24.05.2018 17:00:00 24,3 14,9 13 7 N 1016,1 10
24.05.2018 16:00:00 25,0 14,0 13 7 N - 10
24.05.2018 15:00:00 24,0 16,0 9 5 SE - 10
24.05.2018 14:00:00 25,5 13,2 5 3 W 1017,1 10
24.05.2018 13:00:00 25,0 14,0 9 5 NNW - 10
24.05.2018 12:00:00 24,0 16,0 9 5 NW - 10
24.05.2018 11:00:00 22,9 15,5 15 8 NNW 1018,1 10
24.05.2018 10:00:00 23,0 16,0 11 6 NNE - 10
24.05.2018 09:00:00 21,0 16,0 24 13 NNW - 10
24.05.2018 08:00:00 19,0 16,1 16 9 NW 1018,1 10
24.05.2018 07:00:00 18,0 16,0 18 10 NW - 10
24.05.2018 06:00:00 17,0 16,0 16 9 NW - 10
24.05.2018 05:00:00 16,8 16,0 16 9 WNW 1017,6 10
24.05.2018 04:00:00 17,0 16,0 13 7 NNW - 10
24.05.2018 03:00:00 17,0 16,0 18 10 NW - 10
24.05.2018 02:00:00 17,2 16,0 15 8 NW 1018,4 10
24.05.2018 01:00:00 17,0 16,0 13 7 NW - 10
24.05.2018 00:00:00 18,0 15,0 15 8 NW - 10
23.05.2018 23:00:00 17,7 15,1 18 10 NW 1018,3 10
23.05.2018 22:00:00 18,0 15,0 11 6 WNW - 10
23.05.2018 21:00:00 18,0 15,0 9 5 WNW - 10
23.05.2018 20:00:00 18,9 14,8 16 9 WNW 1017,9 10
23.05.2018 19:00:00 20,0 14,0 31 17 NW - 10
23.05.2018 18:00:00 21,0 15,0 35 19 WNW - 10
23.05.2018 17:00:00 21,6 14,6 29 16 WNW 1017,5 10
23.05.2018 16:00:00 22,0 15,0 35 19 NW - 10
23.05.2018 15:00:00 23,0 15,0 28 15 NW - 10
23.05.2018 14:00:00 22,8 14,6 37 20 NW 1017,8 10
23.05.2018 13:00:00 23,0 15,0 34 18 NNW - 10
23.05.2018 12:00:00 23,0 14,0 37 20 NNW - 10
23.05.2018 11:00:00 22,2 14,7 37 20 NW 1017,6 10
23.05.2018 10:00:00 22,0 15,0 35 19 NW - 10
23.05.2018 09:00:00 21,0 15,0 29 16 NNW - 10
23.05.2018 08:00:00 19,9 16,3 26 14 NNW 1016,1 10
23.05.2018 07:00:00 19,0 17,0 18 10 NNW - 10
23.05.2018 06:00:00 18,0 17,0 24 13 NNW - 7
23.05.2018 05:00:00 18,7 16,0 18 10 NW 1014,4 10
23.05.2018 04:00:00 19,0 18,0 21 11 NNW - 10
23.05.2018 03:00:00 19,0 18,0 22 12 NW - 10
23.05.2018 02:00:00 19,4 18,1 16 9 N 1014,2 10
23.05.2018 01:00:00 19,0 18,0 13 7 N - 10
23.05.2018 00:00:00 19,0 19,0 21 11 NNE - 10
22.05.2018 23:00:00 19,6 18,7 18 10 NE 1012,3 10
22.05.2018 22:00:00 20,0 19,0 15 8 NNE - 7
22.05.2018 21:00:00 20,0 19,0 11 6 NE - 7
22.05.2018 20:00:00 20,2 18,8 11 6 NE 1012,1 7
22.05.2018 19:00:00 21,0 18,0 13 7 NE - 10
22.05.2018 18:00:00 21,0 17,0 16 9 NE - 10
22.05.2018 17:00:00 22,4 16,6 15 8 NE 1012,3 10
22.05.2018 16:00:00 23,0 17,0 13 7 SE - 10
22.05.2018 15:00:00 22,0 17,0 9 5 ESE - 10
22.05.2018 14:00:00 23,0 16,8 28 15 ESE 1012,0 10
22.05.2018 13:00:00 23,0 17,0 22 12 E - 10
22.05.2018 12:00:00 22,0 17,0 22 12 ESE - 10
22.05.2018 11:00:00 21,2 17,1 24 13 ESE 1013,2 10
22.05.2018 10:00:00 21,0 17,0 18 10 ESE - 10
22.05.2018 09:00:00 21,0 18,0 24 13 ESE - 10
22.05.2018 08:00:00 19,3 19,2 18 10 E 1012,6 6
22.05.2018 07:00:00 19,0 19,0 11 6 E - 4,5
22.05.2018 06:00:00 19,0 19,0 15 8 ENE - 5
22.05.2018 05:00:00 18,6 18,6 11 6 E 1011,9 5
22.05.2018 04:00:00 19,0 18,0 11 6 E - 7
22.05.2018 03:00:00 19,0 19,0 15 8 E - 6
22.05.2018 02:00:00 19,0 18,8 13 7 ENE 1012,3 5
22.05.2018 01:00:00 19,0 19,0 15 8 ENE - 6
22.05.2018 00:00:00 19,0 18,0 13 7 E - 7
21.05.2018 23:00:00 19,3 18,2 15 8 ENE 1012,3 7
21.05.2018 22:00:00 19,0 18,0 13 7 E - 10
21.05.2018 21:00:00 20,0 18,0 15 8 E - 10
21.05.2018 20:00:00 20,2 17,2 16 9 E 1011,1 10
21.05.2018 19:00:00 21,0 17,0 16 9 E - 10
21.05.2018 18:00:00 22,0 16,0 24 13 ESE - 10
21.05.2018 17:00:00 23,0 16,9 26 14 E 1010,1 10
21.05.2018 16:00:00 23,0 16,0 21 11 E - 10
21.05.2018 15:00:00 24,0 16,0 26 14 E - 10
21.05.2018 14:00:00 23,7 16,6 18 10 E 1011,7 10
21.05.2018 13:00:00 24,0 16,0 21 11 E - 10
21.05.2018 12:00:00 23,0 17,0 18 10 ENE - 10
21.05.2018 11:00:00 22,5 16,5 22 12 ENE 1011,9 10
21.05.2018 10:00:00 22,0 16,0 16 9 E - 10
21.05.2018 09:00:00 21,0 16,0 22 12 ENE - 10
21.05.2018 08:00:00 20,1 15,0 28 15 ENE 1011,6 10
21.05.2018 07:00:00 19,0 15,0 22 12 ENE - 10
21.05.2018 06:00:00 19,0 14,0 15 8 NE - 10
21.05.2018 05:00:00 18,7 14,2 15 8 NE 1010,7 10
21.05.2018 04:00:00 19,0 15,0 18 10 NNE - 10
21.05.2018 03:00:00 19,0 14,0 21 11 NE - 10
21.05.2018 02:00:00 18,9 14,9 21 11 NE 1010,9 10
21.05.2018 01:00:00 19,0 16,0 18 10 NE - 10
21.05.2018 00:00:00 19,0 16,0 21 11 NE - 10
20.05.2018 23:00:00 18,8 16,3 21 11 NE 1010,8 10
20.05.2018 22:00:00 19,0 17,0 24 13 NE - 10
20.05.2018 21:00:00 19,0 17,0 24 13 NE - 10
20.05.2018 20:00:00 19,1 17,1 21 11 NE 1010,5 10
20.05.2018 19:00:00 20,0 17,0 21 11 ENE - 10
20.05.2018 18:00:00 21,0 16,0 26 14 ENE - 10
20.05.2018 17:00:00 21,8 15,7 22 12 E 1010,0 10
20.05.2018 16:00:00 22,0 15,0 22 12 E - 10
20.05.2018 15:00:00 22,0 14,0 31 17 E - 10
20.05.2018 14:00:00 22,0 14,4 28 15 ENE 1009,6 10
20.05.2018 13:00:00 23,0 15,0 22 12 ENE - 10
20.05.2018 12:00:00 21,0 17,0 35 19 ENE - 10
20.05.2018 11:00:00 18,9 17,3 29 16 ENE 1009,9 8
20.05.2018 10:00:00 19,0 17,0 22 12 ENE - 9
20.05.2018 09:00:00 20,0 16,0 31 17 ENE - 10
20.05.2018 08:00:00 19,3 16,7 28 15 ENE 1010,4 10
20.05.2018 07:00:00 19,0 17,0 24 13 ENE - 10
20.05.2018 06:00:00 18,0 17,0 22 12 ENE - 9
20.05.2018 05:00:00 18,1 17,2 22 12 ENE 1010,1 7
20.05.2018 04:00:00 18,0 17,0 22 12 ENE - 7
20.05.2018 03:00:00 18,0 18,0 28 15 NE - 7
20.05.2018 02:00:00 18,4 17,6 28 15 NE 1011,1 7
20.05.2018 01:00:00 18,0 18,0 24 13 ENE - 7
20.05.2018 00:00:00 18,0 18,0 24 13 ENE - 8
19.05.2018 23:00:00 18,3 17,3 18 10 ENE 1012,2 10
19.05.2018 22:00:00 18,0 17,0 18 10 E - 10
19.05.2018 21:00:00 18,0 17,0 28 15 ENE - 10
19.05.2018 20:00:00 19,0 17,0 31 17 ENE 1011,8 10
19.05.2018 19:00:00 19,0 17,0 24 13 ENE - 10
19.05.2018 18:00:00 20,0 17,0 28 15 E - 10
19.05.2018 17:00:00 20,9 16,0 31 17 ENE 1011,2 10
19.05.2018 16:00:00 22,0 15,0 34 18 ENE - 10
19.05.2018 15:00:00 22,0 15,0 34 18 ENE - 10
19.05.2018 14:00:00 22,2 15,3 34 18 E 1011,8 10
19.05.2018 13:00:00 21,0 16,0 29 16 E - 10
19.05.2018 12:00:00 21,0 16,0 22 12 NE - 10
19.05.2018 11:00:00 20,1 15,3 26 14 E 1012,9 10
19.05.2018 10:00:00 20,0 14,0 29 16 ESE - 10
19.05.2018 09:00:00 19,0 17,0 18 10 E - 10
19.05.2018 08:00:00 18,0 16,4 29 16 NNE 1008,1 9
19.05.2018 07:00:00 18,0 16,0 21 11 NNW - 10
19.05.2018 06:00:00 18,0 16,0 22 12 ENE - 10
19.05.2018 05:00:00 17,7 15,8 18 10 ENE 1011,4 10

tt = temperature
td = dewpoint
ff = wind speed
dd = wind direction
ppp = reduced air pressure
vv = visibility

Next stations